Back to catalog

STARLINK-32287

AliveCommunicationsVLEO
NORAD 60358·PAYLOAD·🇺🇸 United States

Launched Aug 4, 2024 from Vandenberg Space Force Base

Loading…

Next Passes (next 24 hours)

TLE

FreshSource: CelesTrak SupGP

Epoch: Sep 14, 2026, 15:07 UTC

1 60358C 24138D   26257.63034722  .00056431  00000+0  16663-2 0  2578
2 60358  53.1566 151.0921 0001156 102.2006  56.0716 15.34380026    11

Track STARLINK-32287 in real time with AllMySat

Download on the App Store